Location: ECC Obs
(38.4314°N, 90.9815°W)
Time: 01:23:30
(UTC-05:00)

Explorer 11/Cluster Stage 4 - Visible Passes

Search period start: 10 April 2020 00:00
Search period end: 20 April 2020 00:00
Orbit: 467 x 1259 km, 28.8° (Epoch: 09 April)

Date Brightness Start Highest point End Pass type
(mag) Time Alt. Az. Time Alt. Az. Time Alt. Az.
10 Apr 8.9 04:03:36 19° SSE 04:04:05 19° SSE 04:09:03 10° ESE visible
10 Apr 8.3 05:45:51 10° SW 05:52:33 32° S 05:58:22 10° ESE visible
11 Apr 8.8 03:53:14 22° SSE 03:53:14 22° SSE 03:58:36 10° ESE visible
11 Apr 8.2 05:35:21 13° SW 05:41:37 35° S 05:47:44 10° ESE visible
12 Apr 8.7 03:42:50 24° SSE 03:42:50 24° SSE 03:48:02 10° ESE visible
12 Apr 8.1 05:24:56 16° SW 05:30:40 37° S 05:37:02 10° ESE visible
13 Apr 8.7 03:32:24 26° SE 03:32:24 26° SE 03:37:23 10° ESE visible
13 Apr 8.1 05:14:30 19° SW 05:19:41 39° S 05:26:19 10° ESE visible
14 Apr 8.7 03:21:57 27° SE 03:21:57 27° SE 03:26:39 10° ESE visible
14 Apr 8.0 05:04:04 22° SW 05:08:41 40° S 05:15:32 10° ESE visible
15 Apr 8.7 03:11:30 27° SE 03:11:30 27° SE 03:15:52 10° ESE visible
15 Apr 8.0 04:53:38 25° SW 04:57:41 41° S 05:04:44 10° ESE visible
16 Apr 8.8 03:01:04 26° SE 03:01:04 26° SE 03:05:01 10° ESE visible
16 Apr 8.0 04:43:11 29° SW 04:46:41 42° S 04:53:52 10° ESE visible
17 Apr 8.9 02:50:40 24° ESE 02:50:40 24° ESE 02:54:08 10° ESE visible
17 Apr 8.0 04:32:47 32° SW 04:35:39 42° S 04:42:59 10° ESE visible
18 Apr 9.0 02:40:19 22° ESE 02:40:19 22° ESE 02:43:13 10° ESE visible
18 Apr 7.9 04:22:26 36° SW 04:24:37 42° S 04:32:03 10° ESE visible
19 Apr 9.2 02:30:02 19° ESE 02:30:02 19° ESE 02:32:14 10° ESE visible
19 Apr 7.9 04:12:10 38° SSW 04:13:35 41° S 04:21:04 10° ESE visible
